Regional Weather Roundup
Issued by NWS

Home | Current Version | Previous Version | Graphics & Text | Print | Product List | Glossary On
Versions: 1 2 3 4 5 6 7 8 9 10 11 12 13 14 15 16 17 18 19 20 21 22 23 24 25 26 27 28 29 30 31 32 33 34 35 36 37 38 39 40 41 42 43 44 45 46 47 48 49 50
000
ASUS43 KDTX 192210
RWRMI
MICHIGAN HOURLY REGIONAL WEATHER ROUNDUP
NATIONAL WEATHER SERVICE DETROIT/PONTIAC MI
500 PM EST FRI DEC 19 2014

NOTE: "FAIR" INDICATES FEW OR NO CLOUDS BELOW 12,000 FEET WITH NO
SIGNIFICANT WEATHER AND/OR OBSTRUCTION TO VISIBILITY.

MIZ047>049-052>055-059>063-066>070-074>076-081>083-192300-
SOUTHEAST LOWER MICHIGAN

CITY           SKY/WX    TMP DP  RH WIND       PRES   REMARKS
ADRIAN         CLOUDY    30  22  72 SW3       30.27R
ALMA           CLEAR     28  20  71 S3        30.27R
ANN ARBOR      CLOUDY    28  22  78 N5        30.27R WCI  23
BAD AXE        CLEAR     26  21  79 W3        30.27R
CARO           CLEAR     28  19  69 CALM      30.27R
DETROIT CITY   CLEAR     31  18  58 SW5       30.27R WCI  26
DETROIT        PTCLDY    26  19  74 W3        30.29R
FLINT          PTCLDY    29  19  66 W5        30.26S WCI  24
GROSSE ILE     MOCLDY    28  21  74 NW5       30.27R WCI  23
HILLSDALE      CLOUDY    30  24  80 CALM      30.24R
HOWELL         CLOUDY    26  20  77 SW3       30.26R

CITY           SKY/WX    TMP DP  RH WIND       PRES   REMARKS
JACKSON        CLOUDY    28  22  78 CALM      30.25R
LAMBERTVILLE   CLOUDY    32  27  80 CALM      30.28R
LANSING        PTCLDY    26  19  74 SW5       30.27R WCI  20
LAPEER         FAIR      29  20  69 W3        30.25S
MASON          CLOUDY    26  21  79 CALM      30.26S
MONROE         CLOUDY    30  23  74 CALM      30.26S
MT. CLEMENS    PTCLDY    29  20  68 N3        30.25R
PONTIAC        PTCLDY    29  18  63 CALM      30.24R
PORT HOPE        N/A     28  20  71 CALM      30.25R
PORT HURON     CLOUDY    28  21  74 N7        30.27R WCI  21
TRI CITIES     CLEAR     30  18  60 S3        30.27R
TROY           CLEAR     32  19  57 SW5       30.27S WCI  28
SAGINAW HB     CLEAR     30  19  64 CALM      30.27R
$$
MIZ043>046-050>051-056>058-064>065-071>073-077>080-192300-
SOUTHWEST LOWER MICHIGAN

CITY           SKY/WX    TMP DP  RH WIND       PRES   REMARKS
BATTLE CREEK   CLEAR     30  20  66 CALM      30.25R
BENTON HARBOR  CLOUDY    31  23  72 VRB3      30.28R
BIG RAPIDS     CLEAR     30  18  60 CALM      30.24S
COLDWATER      CLOUDY    30  23  76 CALM      30.25R
FREMONT        FAIR      31  15  52 CALM      30.26R
HOLLAND        CLEAR     32  20  61 CALM      30.27R
GRAND RAPIDS   PTCLDY    30  19  63 S3        30.26R
IONIA          FAIR      30  21  70 S3        30.26R
KALAMAZOO      CLEAR     32  21  64 E6        30.25R WCI  26
LUDINGTON      PTCLDY    29  23  79 CALM      30.28R
MARSHALL       CLOUDY    28  21  74 CALM      30.24S
MOUNT PLEASANT CLEAR     30  17  57 CALM      30.26R
MUSKEGON       CLEAR     31  17  56 NW5       30.27R WCI  26
SOUTH HAVEN    CLEAR     31  18  57 NW3       30.27R
$$
MIZ016>042-192300-
NORTHERN LOWER MICHIGAN

CITY           SKY/WX    TMP DP  RH WIND       PRES   REMARKS
ALPENA         CLEAR     22  17  81 N5        30.27R WCI  16
BEAVER ISLAND  CLEAR     22  19  85 CALM      30.28R
BELLAIRE       CLOUDY    28  22  79 CALM      30.27S
CADILLAC       CLEAR     25  20  79 CALM      30.22R
CHARLEVOIX     PTCLDY    26  21  81 CALM      30.30R
FRANKFORT      CLOUDY    30  22  73 CALM      30.27R
GAYLORD        CLEAR     25  16  68 W3        30.22R
GRAYLING       CLEAR     27  19  71 CALM      30.24R
HARBOR SPRINGS CLEAR     26  19  75 CALM      30.26S
HOUGHTON LAKE  CLEAR     26  19  74 W3        30.23R
MANISTEE       CLOUDY    30  19  64 NW3       30.28R
OSCODA         CLEAR     24  20  84 E3        30.26R
PELLSTON       CLEAR     23  16  74 N5        30.27R WCI  17
ROGERS CITY    CLEAR     24  21  87 NW3       30.28R
TRAVERSE CITY  MOCLDY    29  22  75 W5        30.26R WCI  24
$$
MIZ007>008-015-192300-
EASTERN UPPER MICHIGAN

CITY           SKY/WX    TMP DP  RH WIND       PRES   REMARKS
KINROSS        CLEAR     21  16  79 CALM      30.26S
MACKINAC ISLAN CLEAR     22  16  79 CALM      30.26S
NEWBERRY       CLEAR     23  20  87 NW3       30.25R
S. S. MARIE    PTCLDY    22  12  65 S3        30.24F
MUNISING         N/A     31  20  63 CALM      30.26R
$$
MIZ004>006-011>014-085-192300-
CENTRAL UPPER MICHIGAN

CITY           SKY/WX    TMP DP  RH WIND       PRES   REMARKS
MANISTIQUE     CLOUDY    28  24  84 CALM      30.26R
ESCANABA       CLOUDY    28  19  69 CALM      30.27S
MENOMINEE      MOCLDY    27  21  80 SE6       30.27R WCI  20
SAWYER-GWINN   CLOUDY    28  21  74 CALM      30.23R
$$
MIZ001>003-009>011-084-192300-
WESTERN UPPER MICHIGAN

CITY           SKY/WX    TMP DP  RH WIND       PRES   REMARKS
IRON MOUNTAIN  CLEAR     25  18  74 E5        30.23R WCI  19
HOUGHTON       CLOUDY    26  18  71 SE3       30.22S
COPPER HARBOR    N/A     31  22  69 CALM      30.25R
IRONWOOD       CLOUDY    23  21  93 S5        30.19R WCI  17
$$

ABBREVIATIONS USED IN REMARKS
   TC - TEMPERATURE IN CELSIUS
  WCI - WIND CHILL INDEX
   HX - HEAT INDEX
  VSB - VISIBILITY




USA.gov is the U.S. government's official web portal to all federal, state and local government web resources and services.